Precipitable_Water
1.05 1.05 1.00 0.87 0.84 0.85 0.85 0.88 0.97 1.03 1.01 0.98 0.92 0.87 0.87 0.86 0.83 0.81 0.81 0.77 0.75 0.71 0.65 0.64 0.62 0.60 0.59 0.57 0.56 0.57 0.58 0.58 0.59 0.59 0.58 0.57 0.57 0.56 0.55 0.55 0.54 0.53 0.53 0.53 0.55 0.55 0.55 0.55 0.55 0.56 0.56 0.51 0.54 0.57 0.58 0.59 0.59 0.58 0.58 0.56 0.52 0.51 0.49 0.45 0.42 0.41 0.43 0.45 0.41 0.38 0.38 0.36 0.31 0.33 0.29 0.30 0.31 0.34 0.36 0.38 0.40 0.41 0.41 0.42 0.43
0.94 0.95 0.98 0.89 0.83 0.85 0.86 0.93 0.95 0.97 0.98 0.98 0.97 0.98 0.94 0.92 0.90 0.90 0.87 0.86 0.84 0.82 0.79 0.77 0.75 0.72 0.67 0.65 0.63 0.61 0.61 0.60 0.60 0.59 0.58 0.57 0.57 0.58 0.57 0.55 0.55 0.56 0.56 0.53 0.54 0.56 0.55 0.53 0.55 0.57 0.57 0.54 0.53 0.55 0.58 0.60 0.60 0.59 0.59 0.58 0.55 0.53 0.54 0.48 0.43 0.40 0.39 0.47 0.47 0.49 0.44 0.41 0.31 0.33 0.29 0.29 0.31 0.32 0.32 0.33 0.35 0.36 0.37 0.39 0.39
0.93 0.97 0.99 0.93 0.91 0.89 0.89 0.91 0.93 0.97 0.99 0.97 0.95 1.00 1.02 0.99 0.97 0.93 0.90 0.90 0.91 0.91 0.90 0.88 0.88 0.87 0.84 0.81 0.78 0.75 0.72 0.70 0.68 0.65 0.62 0.61 0.59 0.59 0.59 0.57 0.56 0.56 0.55 0.55 0.55 0.57 0.55 0.54 0.55 0.57 0.59 0.56 0.55 0.57 0.59 0.60 0.61 0.60 0.60 0.60 0.58 0.57 0.56 0.54 0.49 0.43 0.40 0.41 0.47 0.46 0.46 0.45 0.41 0.37 0.35 0.34 0.33 0.34 0.32 0.32 0.34 0.36 0.38 0.39 0.40
1.01 1.01 1.02 0.99 0.95 0.92 0.90 0.91 0.91 0.96 0.99 0.96 0.94 1.00 1.03 1.04 1.01 0.96 0.94 0.93 0.92 0.94 0.96 0.95 0.94 0.93 0.91 0.90 0.89 0.87 0.85 0.82 0.81 0.79 0.75 0.72 0.70 0.68 0.68 0.66 0.64 0.63 0.60 0.59 0.60 0.60 0.59 0.59 0.60 0.61 0.62 0.60 0.59 0.58 0.60 0.62 0.61 0.61 0.59 0.59 0.58 0.56 0.55 0.53 0.52 0.46 0.42 0.37 0.41 0.41 0.43 0.41 0.41 0.41 0.42 0.41 0.38 0.36 0.35 0.34 0.35 0.35 0.37 0.38 0.39
1.07 1.02 1.02 0.99 0.96 0.90 0.89 0.90 0.89 0.91 0.96 1.01 1.01 1.06 1.06 1.05 1.05 1.02 1.00 0.97 0.95 0.93 0.93 0.96 0.95 0.94 0.92 0.91 0.90 0.90 0.90 0.89 0.87 0.85 0.83 0.81 0.80 0.79 0.78 0.76 0.74 0.72 0.69 0.68 0.67 0.66 0.65 0.63 0.64 0.66 0.65 0.62 0.63 0.61 0.62 0.62 0.62 0.62 0.60 0.59 0.57 0.55 0.54 0.53 0.49 0.46 0.40 0.35 0.33 0.36 0.36 0.36 0.37 0.37 0.39 0.39 0.40 0.40 0.40 0.37 0.36 0.36 0.36 0.38 0.39
0.97 0.95 0.93 0.93 0.93 0.91 0.90 0.87 0.86 0.89 0.94 0.97 1.00 1.05 1.04 1.06 1.03 1.04 1.06 1.05 1.03 1.00 0.96 0.96 0.95 0.93 0.92 0.92 0.92 0.92 0.93 0.93 0.92 0.92 0.91 0.89 0.86 0.85 0.84 0.82 0.80 0.78 0.76 0.74 0.73 0.71 0.69 0.68 0.69 0.69 0.68 0.66 0.66 0.65 0.63 0.61 0.61 0.60 0.59 0.57 0.55 0.53 0.51 0.50 0.47 0.42 0.38 0.33 0.30 0.28 0.31 0.32 0.34 0.35 0.38 0.39 0.38 0.38 0.39 0.39 0.38 0.38 0.37 0.35 0.36
0.90 0.90 0.90 0.90 0.93 0.92 0.93 0.94 0.90 0.90 0.92 0.93 0.96 0.95 0.97 1.02 1.03 1.01 1.05 1.07 1.08 1.04 1.01 0.99 0.99 0.98 0.97 0.97 0.95 0.94 0.94 0.94 0.95 0.95 0.94 0.93 0.90 0.88 0.87 0.86 0.84 0.82 0.80 0.78 0.75 0.74 0.73 0.72 0.72 0.71 0.70 0.70 0.68 0.66 0.64 0.62 0.61 0.59 0.57 0.54 0.52 0.50 0.48 0.46 0.44 0.40 0.37 0.34 0.32 0.31 0.30 0.32 0.33 0.31 0.35 0.38 0.38 0.38 0.37 0.39 0.39 0.39 0.38 0.37 0.34
0.85 0.85 0.87 0.89 0.88 0.88 0.90 0.92 0.93 0.93 0.92 0.93 0.95 0.94 0.96 0.99 1.02 1.04 1.04 1.04 1.07 1.04 1.00 1.00 1.02 1.02 1.02 1.01 0.99 0.97 0.95 0.94 0.92 0.92 0.92 0.93 0.93 0.92 0.90 0.88 0.87 0.85 0.83 0.81 0.79 0.79 0.79 0.79 0.77 0.74 0.72 0.71 0.70 0.68 0.65 0.62 0.61 0.59 0.58 0.55 0.53 0.50 0.46 0.43 0.41 0.39 0.37 0.35 0.32 0.30 0.30 0.29 0.29 0.32 0.35 0.34 0.32 0.32 0.36 0.37 0.35 0.38 0.40 0.42 0.41
0.80 0.81 0.82 0.82 0.85 0.88 0.90 0.92 0.94 0.94 0.94 0.95 0.92 0.93 0.94 0.96 1.01 1.04 1.05 1.03 1.06 1.04 1.02 1.00 0.98 0.98 0.99 0.98 0.97 0.96 0.94 0.93 0.92 0.90 0.91 0.93 0.96 0.93 0.91 0.90 0.89 0.87 0.85 0.84 0.82 0.82 0.83 0.84 0.83 0.79 0.77 0.75 0.73 0.70 0.68 0.64 0.59 0.56 0.55 0.54 0.51 0.48 0.45 0.44 0.42 0.40 0.38 0.35 0.32 0.31 0.29 0.28 0.27 0.27 0.28 0.30 0.31 0.31 0.34 0.36 0.35 0.37 0.39 0.39 0.41
0.65 0.69 0.70 0.72 0.75 0.79 0.82 0.85 0.87 0.88 0.88 0.88 0.91 0.92 0.93 0.94 0.95 0.97 1.00 1.00 0.99 0.97 0.96 0.96 0.94 0.93 0.92 0.91 0.91 0.91 0.91 0.93 0.93 0.91 0.89 0.91 0.93 0.94 0.94 0.93 0.90 0.88 0.87 0.85 0.84 0.83 0.84 0.85 0.86 0.83 0.80 0.78 0.75 0.72 0.68 0.64 0.60 0.57 0.56 0.54 0.52 0.50 0.48 0.46 0.45 0.42 0.39 0.36 0.33 0.32 0.30 0.29 0.29 0.30 0.29 0.30 0.33 0.36 0.35 0.34 0.31 0.33 0.35 0.34 0.36
0.52 0.52 0.53 0.60 0.64 0.69 0.74 0.77 0.81 0.84 0.90 0.92 0.92 0.91 0.90 0.92 0.93 0.94 0.94 0.93 0.91 0.89 0.88 0.87 0.88 0.89 0.88 0.87 0.87 0.88 0.89 0.89 0.90 0.91 0.91 0.90 0.89 0.88 0.88 0.89 0.90 0.89 0.87 0.84 0.81 0.80 0.81 0.83 0.85 0.85 0.85 0.82 0.78 0.73 0.69 0.66 0.62 0.59 0.59 0.58 0.56 0.54 0.51 0.49 0.47 0.45 0.42 0.39 0.37 0.35 0.34 0.32 0.32 0.33 0.32 0.33 0.34 0.34 0.34 0.35 0.35 0.34 0.32 0.30 0.28
0.48 0.47 0.47 0.50 0.53 0.58 0.64 0.67 0.68 0.70 0.72 0.71 0.71 0.72 0.74 0.75 0.76 0.76 0.77 0.77 0.79 0.83 0.84 0.85 0.87 0.88 0.87 0.87 0.86 0.88 0.91 0.93 0.93 0.91 0.89 0.88 0.88 0.86 0.85 0.83 0.81 0.80 0.80 0.80 0.79 0.79 0.77 0.78 0.80 0.82 0.82 0.79 0.76 0.72 0.69 0.66 0.63 0.59 0.57 0.56 0.56 0.55 0.54 0.52 0.48 0.46 0.43 0.40 0.38 0.37 0.36 0.34 0.34 0.34 0.34 0.34 0.34 0.35 0.35 0.35 0.34 0.33 0.32 0.31 0.31
0.51 0.49 0.46 0.46 0.48 0.51 0.53 0.52 0.52 0.54 0.57 0.61 0.63 0.66 0.67 0.68 0.68 0.68 0.67 0.69 0.71 0.71 0.70 0.71 0.71 0.74 0.76 0.75 0.77 0.79 0.80 0.83 0.84 0.85 0.84 0.83 0.83 0.83 0.82 0.80 0.79 0.78 0.78 0.77 0.75 0.74 0.74 0.73 0.74 0.76 0.78 0.77 0.74 0.71 0.69 0.67 0.64 0.58 0.54 0.53 0.54 0.55 0.54 0.53 0.52 0.49 0.46 0.43 0.40 0.38 0.38 0.37 0.35 0.36 0.37 0.37 0.38 0.34 0.35 0.33 0.34 0.33 0.33 0.31 0.31
0.48 0.47 0.44 0.42 0.43 0.45 0.50 0.49 0.46 0.48 0.53 0.55 0.53 0.53 0.55 0.57 0.59 0.60 0.58 0.58 0.57 0.59 0.61 0.61 0.64 0.67 0.69 0.68 0.65 0.65 0.62 0.60 0.61 0.64 0.69 0.74 0.79 0.82 0.81 0.81 0.79 0.77 0.77 0.77 0.76 0.74 0.72 0.73 0.73 0.74 0.76 0.75 0.74 0.71 0.70 0.67 0.62 0.56 0.53 0.53 0.53 0.53 0.51 0.51 0.50 0.49 0.49 0.46 0.43 0.39 0.41 0.41 0.38 0.39 0.41 0.42 0.38 0.35 0.34 0.33 0.34 0.32 0.31 0.30 0.33
0.47 0.47 0.44 0.44 0.44 0.44 0.46 0.45 0.43 0.44 0.44 0.45 0.45 0.45 0.47 0.48 0.49 0.51 0.53 0.53 0.56 0.57 0.58 0.57 0.57 0.57 0.60 0.62 0.61 0.59 0.57 0.57 0.57 0.58 0.60 0.62 0.66 0.70 0.73 0.76 0.76 0.76 0.76 0.74 0.73 0.76 0.75 0.76 0.77 0.74 0.72 0.72 0.72 0.71 0.69 0.66 0.61 0.55 0.53 0.52 0.52 0.52 0.51 0.50 0.50 0.50 0.49 0.48 0.46 0.45 0.44 0.44 0.43 0.42 0.41 0.41 0.39 0.38 0.37 0.35 0.35 0.34 0.34 0.34 0.33
0.47 0.48 0.46 0.46 0.45 0.45 0.45 0.45 0.44 0.44 0.44 0.44 0.43 0.41 0.41 0.42 0.42 0.42 0.42 0.44 0.47 0.50 0.52 0.52 0.50 0.51 0.53 0.56 0.56 0.52 0.51 0.52 0.53 0.55 0.57 0.58 0.60 0.64 0.65 0.65 0.66 0.67 0.69 0.71 0.70 0.71 0.74 0.75 0.77 0.78 0.78 0.76 0.75 0.72 0.69 0.65 0.59 0.54 0.52 0.51 0.51 0.52 0.52 0.53 0.53 0.53 0.51 0.50 0.49 0.47 0.45 0.44 0.43 0.41 0.40 0.39 0.38 0.37 0.37 0.37 0.36 0.34 0.32 0.29 0.26
0.48 0.47 0.48 0.48 0.48 0.48 0.48 0.47 0.47 0.47 0.46 0.44 0.42 0.37 0.34 0.33 0.34 0.36 0.34 0.35 0.35 0.36 0.37 0.39 0.44 0.46 0.47 0.48 0.48 0.50 0.52 0.54 0.55 0.56 0.57 0.57 0.57 0.57 0.60 0.61 0.62 0.63 0.64 0.67 0.69 0.71 0.74 0.75 0.72 0.67 0.66 0.66 0.66 0.63 0.61 0.58 0.54 0.52 0.51 0.49 0.49 0.49 0.49 0.51 0.51 0.52 0.51 0.50 0.48 0.46 0.44 0.42 0.41 0.40 0.39 0.38 0.37 0.37 0.35 0.31 0.29 0.30 0.27 0.25 0.25
0.50 0.50 0.50 0.50 0.49 0.49 0.49 0.48 0.47 0.47 0.46 0.44 0.41 0.36 0.35 0.36 0.35 0.35 0.31 0.30 0.30 0.34 0.37 0.38 0.43 0.47 0.49 0.49 0.50 0.47 0.47 0.50 0.53 0.55 0.56 0.58 0.57 0.55 0.56 0.56 0.57 0.59 0.61 0.64 0.65 0.66 0.66 0.65 0.63 0.61 0.61 0.61 0.62 0.61 0.58 0.55 0.52 0.50 0.49 0.47 0.46 0.45 0.45 0.45 0.45 0.46 0.45 0.43 0.42 0.41 0.40 0.38 0.38 0.37 0.36 0.35 0.34 0.34 0.31 0.27 0.29 0.30 0.27 0.26 0.24
0.53 0.52 0.52 0.52 0.50 0.50 0.51 0.51 0.49 0.48 0.46 0.45 0.43 0.40 0.38 0.38 0.38 0.39 0.37 0.35 0.33 0.33 0.35 0.36 0.38 0.41 0.45 0.48 0.50 0.48 0.46 0.49 0.52 0.54 0.56 0.57 0.57 0.57 0.56 0.55 0.55 0.56 0.58 0.59 0.61 0.62 0.63 0.67 0.70 0.70 0.68 0.66 0.63 0.58 0.55 0.52 0.49 0.48 0.47 0.44 0.41 0.39 0.40 0.41 0.40 0.38 0.38 0.37 0.37 0.37 0.36 0.36 0.36 0.36 0.35 0.35 0.36 0.35 0.35 0.33 0.33 0.30 0.27 0.27 0.27
0.57 0.56 0.55 0.54 0.54 0.52 0.51 0.50 0.50 0.50 0.48 0.48 0.47 0.45 0.43 0.40 0.40 0.40 0.40 0.39 0.37 0.36 0.36 0.36 0.37 0.39 0.43 0.47 0.50 0.50 0.47 0.48 0.51 0.53 0.54 0.56 0.58 0.58 0.58 0.55 0.53 0.54 0.55 0.58 0.59 0.62 0.63 0.63 0.64 0.64 0.63 0.61 0.58 0.55 0.52 0.50 0.48 0.47 0.44 0.40 0.37 0.35 0.39 0.39 0.40 0.39 0.38 0.37 0.36 0.37 0.37 0.37 0.37 0.37 0.37 0.37 0.36 0.36 0.36 0.35 0.34 0.33 0.30 0.29 0.29
0.56 0.56 0.56 0.55 0.55 0.55 0.54 0.52 0.50 0.49 0.49 0.48 0.47 0.43 0.41 0.39 0.41 0.42 0.42 0.44 0.43 0.41 0.40 0.39 0.38 0.39 0.42 0.46 0.49 0.51 0.52 0.51 0.52 0.53 0.54 0.56 0.57 0.57 0.56 0.55 0.53 0.53 0.54 0.54 0.54 0.55 0.57 0.61 0.63 0.62 0.59 0.55 0.52 0.49 0.48 0.47 0.46 0.43 0.41 0.38 0.38 0.37 0.39 0.38 0.39 0.40 0.39 0.38 0.38 0.37 0.37 0.37 0.37 0.37 0.36 0.36 0.35 0.35 0.36 0.36 0.36 0.35 0.33 0.31 0.30
0.52 0.53 0.54 0.54 0.54 0.54 0.55 0.55 0.54 0.52 0.51 0.49 0.44 0.41 0.43 0.45 0.45 0.46 0.47 0.46 0.45 0.44 0.43 0.42 0.41 0.41 0.43 0.45 0.47 0.49 0.51 0.53 0.54 0.55 0.57 0.58 0.58 0.58 0.56 0.55 0.56 0.56 0.54 0.54 0.54 0.54 0.54 0.53 0.51 0.50 0.49 0.48 0.47 0.46 0.45 0.43 0.43 0.42 0.39 0.38 0.38 0.39 0.40 0.41 0.40 0.40 0.39 0.39 0.38 0.37 0.36 0.36 0.35 0.35 0.35 0.34 0.35 0.35 0.36 0.36 0.36 0.36 0.36 0.35 0.33
0.51 0.51 0.50 0.51 0.52 0.53 0.54 0.53 0.53 0.52 0.50 0.47 0.44 0.43 0.44 0.46 0.48 0.49 0.48 0.47 0.46 0.44 0.43 0.43 0.42 0.42 0.42 0.43 0.46 0.49 0.51 0.53 0.55 0.55 0.55 0.56 0.56 0.56 0.56 0.54 0.53 0.53 0.52 0.51 0.51 0.51 0.53 0.52 0.52 0.51 0.49 0.47 0.46 0.44 0.43 0.41 0.39 0.38 0.39 0.41 0.42 0.41 0.40 0.38 0.38 0.37 0.37 0.36 0.35 0.34 0.34 0.34 0.33 0.33 0.33 0.33 0.35 0.36 0.36 0.37 0.37 0.37 0.37 0.37 0.38
0.45 0.45 0.46 0.46 0.46 0.47 0.50 0.52 0.52 0.52 0.49 0.47 0.47 0.46 0.45 0.46 0.47 0.48 0.48 0.46 0.44 0.42 0.42 0.43 0.43 0.44 0.43 0.43 0.46 0.49 0.52 0.53 0.55 0.56 0.56 0.54 0.54 0.53 0.53 0.53 0.52 0.52 0.53 0.51 0.52 0.52 0.52 0.51 0.50 0.48 0.47 0.44 0.43 0.41 0.39 0.39 0.40 0.42 0.43 0.43 0.42 0.41 0.40 0.39 0.37 0.36 0.34 0.33 0.32 0.31 0.32 0.33 0.33 0.33 0.34 0.35 0.36 0.36 0.37 0.38 0.38 0.38 0.38 0.38 0.39
0.43 0.42 0.43 0.44 0.45 0.47 0.47 0.47 0.48 0.49 0.49 0.49 0.47 0.47 0.47 0.47 0.45 0.46 0.46 0.44 0.42 0.40 0.40 0.42 0.42 0.43 0.44 0.45 0.47 0.49 0.51 0.52 0.53 0.53 0.52 0.51 0.51 0.52 0.53 0.54 0.54 0.53 0.54 0.55 0.54 0.50 0.48 0.47 0.45 0.43 0.42 0.41 0.40 0.40 0.41 0.41 0.42 0.42 0.42 0.41 0.40 0.39 0.38 0.37 0.36 0.34 0.32 0.31 0.30 0.31 0.31 0.32 0.33 0.34 0.36 0.37 0.38 0.38 0.37 0.37 0.38 0.38 0.39 0.39 0.39
0.41 0.41 0.42 0.42 0.43 0.46 0.46 0.47 0.47 0.48 0.48 0.48 0.48 0.47 0.46 0.45 0.44 0.43 0.43 0.42 0.42 0.42 0.43 0.44 0.45 0.46 0.46 0.47 0.48 0.49 0.50 0.49 0.50 0.50 0.49 0.50 0.49 0.49 0.51 0.51 0.49 0.53 0.53 0.51 0.49 0.47 0.45 0.43 0.42 0.41 0.40 0.39 0.39 0.39 0.40 0.40 0.40 0.41 0.41 0.40 0.39 0.38 0.37 0.35 0.34 0.32 0.30 0.30 0.30 0.30 0.31 0.33 0.34 0.36 0.37 0.38 0.37 0.36 0.36 0.36 0.36 0.35 0.36 0.36 0.35
0.42 0.42 0.42 0.42 0.43 0.43 0.44 0.44 0.45 0.46 0.47 0.48 0.49 0.49 0.49 0.48 0.47 0.46 0.46 0.45 0.45 0.45 0.45 0.45 0.45 0.47 0.47 0.48 0.49 0.47 0.45 0.44 0.45 0.46 0.47 0.50 0.50 0.48 0.50 0.54 0.59 0.57 0.51 0.48 0.45 0.43 0.42 0.40 0.39 0.39 0.39 0.40 0.41 0.40 0.39 0.40 0.41 0.40 0.38 0.37 0.36 0.35 0.34 0.32 0.31 0.30 0.30 0.30 0.31 0.32 0.33 0.34 0.36 0.36 0.35 0.35 0.35 0.36 0.37 0.36 0.35 0.35 0.35 0.35 0.34
0.41 0.41 0.42 0.42 0.42 0.42 0.43 0.44 0.45 0.47 0.48 0.48 0.48 0.49 0.50 0.50 0.48 0.47 0.46 0.46 0.45 0.45 0.44 0.45 0.47 0.50 0.52 0.53 0.51 0.46 0.41 0.39 0.40 0.42 0.46 0.47 0.50 0.54 0.58 0.53 0.48 0.45 0.41 0.38 0.38 0.38 0.38 0.39 0.38 0.38 0.38 0.38 0.38 0.38 0.39 0.38 0.36 0.35 0.35 0.34 0.33 0.33 0.33 0.33 0.34 0.33 0.33 0.33 0.33 0.33 0.33 0.34 0.33 0.33 0.34 0.34 0.34 0.35 0.37 0.36 0.35 0.35 0.35 0.35 0.32
0.40 0.40 0.41 0.41 0.41 0.41 0.41 0.40 0.40 0.41 0.44 0.45 0.47 0.48 0.49 0.49 0.48 0.48 0.50 0.50 0.48 0.48 0.53 0.58 0.60 0.61 0.64 0.60 0.51 0.43 0.38 0.38 0.44 0.48 0.49 0.50 0.52 0.50 0.48 0.45 0.41 0.38 0.37 0.36 0.36 0.37 0.37 0.36 0.36 0.36 0.36 0.36 0.35 0.34 0.33 0.34 0.34 0.33 0.31 0.31 0.32 0.33 0.33 0.33 0.32 0.32 0.33 0.34 0.33 0.33 0.33 0.33 0.33 0.34 0.34 0.34 0.35 0.35 0.37 0.36 0.37 0.36 0.36 0.36 0.33
0.37 0.37 0.39 0.40 0.41 0.41 0.41 0.40 0.40 0.41 0.41 0.41 0.42 0.44 0.47 0.46 0.47 0.47 0.47 0.52 0.55 0.57 0.55 0.51 0.51 0.51 0.50 0.49 0.45 0.40 0.44 0.49 0.56 0.56 0.56 0.55 0.53 0.48 0.43 0.40 0.37 0.35 0.36 0.37 0.37 0.35 0.35 0.34 0.34 0.34 0.33 0.33 0.32 0.32 0.32 0.30 0.29 0.29 0.30 0.32 0.33 0.33 0.33 0.33 0.33 0.34 0.34 0.34 0.34 0.34 0.33 0.34 0.33 0.34 0.35 0.35 0.35 0.37 0.38 0.38 0.37 0.38 0.37 0.36 0.36
0.34 0.35 0.37 0.38 0.39 0.40 0.40 0.40 0.41 0.42 0.42 0.40 0.40 0.40 0.40 0.43 0.46 0.47 0.48 0.51 0.53 0.53 0.54 0.52 0.49 0.47 0.46 0.44 0.44 0.45 0.45 0.47 0.49 0.50 0.50 0.48 0.44 0.40 0.37 0.36 0.36 0.36 0.37 0.37 0.36 0.36 0.35 0.34 0.33 0.32 0.33 0.33 0.31 0.29 0.28 0.28 0.29 0.30 0.31 0.32 0.33 0.33 0.33 0.33 0.34 0.34 0.34 0.34 0.35 0.35 0.35 0.35 0.35 0.36 0.36 0.36 0.37 0.38 0.40 0.42 0.42 0.42 0.41 0.40 0.40
0.35 0.35 0.36 0.37 0.39 0.40 0.40 0.41 0.41 0.41 0.41 0.41 0.42 0.40 0.39 0.38 0.41 0.46 0.50 0.52 0.53 0.54 0.54 0.53 0.52 0.52 0.52 0.52 0.50 0.48 0.48 0.47 0.45 0.43 0.40 0.38 0.37 0.37 0.36 0.37 0.38 0.39 0.40 0.41 0.38 0.36 0.35 0.32 0.32 0.32 0.31 0.28 0.27 0.28 0.29 0.29 0.30 0.31 0.31 0.31 0.32 0.33 0.33 0.33 0.35 0.36 0.36 0.36 0.36 0.36 0.37 0.37 0.38 0.38 0.39 0.40 0.41 0.42 0.43 0.44 0.45 0.45 0.46 0.46 0.46
0.38 0.38 0.39 0.38 0.38 0.38 0.39 0.41 0.41 0.41 0.41 0.43 0.43 0.41 0.39 0.39 0.38 0.41 0.48 0.51 0.52 0.53 0.53 0.52 0.54 0.57 0.55 0.52 0.51 0.49 0.46 0.43 0.40 0.39 0.38 0.38 0.38 0.38 0.38 0.39 0.40 0.42 0.43 0.40 0.37 0.34 0.33 0.32 0.30 0.28 0.28 0.27 0.28 0.29 0.30 0.30 0.30 0.31 0.32 0.31 0.31 0.33 0.35 0.37 0.38 0.38 0.38 0.39 0.39 0.39 0.40 0.41 0.43 0.44 0.45 0.46 0.46 0.46 0.48 0.48 0.50 0.50 0.50 0.49 0.49
0.39 0.40 0.40 0.40 0.39 0.38 0.38 0.39 0.40 0.40 0.43 0.45 0.43 0.41 0.41 0.43 0.43 0.43 0.42 0.43 0.46 0.49 0.51 0.52 0.54 0.53 0.52 0.50 0.47 0.44 0.41 0.40 0.40 0.40 0.39 0.39 0.39 0.40 0.40 0.42 0.44 0.45 0.43 0.38 0.33 0.29 0.28 0.27 0.28 0.28 0.28 0.29 0.29 0.30 0.30 0.30 0.31 0.31 0.32 0.33 0.34 0.36 0.37 0.39 0.40 0.40 0.42 0.43 0.43 0.44 0.46 0.47 0.48 0.48 0.49 0.50 0.51 0.51 0.51 0.52 0.52 0.51 0.51 0.50 0.50
0.37 0.40 0.41 0.42 0.42 0.41 0.40 0.39 0.39 0.40 0.41 0.41 0.40 0.41 0.43 0.45 0.45 0.43 0.41 0.39 0.39 0.41 0.42 0.45 0.46 0.48 0.49 0.48 0.46 0.45 0.43 0.42 0.41 0.40 0.40 0.41 0.41 0.42 0.42 0.42 0.41 0.40 0.37 0.33 0.29 0.27 0.27 0.28 0.28 0.28 0.28 0.28 0.29 0.30 0.30 0.31 0.32 0.32 0.33 0.34 0.35 0.37 0.39 0.42 0.43 0.45 0.46 0.47 0.47 0.48 0.50 0.50 0.51 0.52 0.51 0.51 0.51 0.51 0.51 0.52 0.52 0.51 0.50 0.50 0.50
0.33 0.35 0.39 0.41 0.43 0.43 0.40 0.39 0.39 0.39 0.38 0.39 0.41 0.43 0.44 0.44 0.43 0.42 0.41 0.41 0.40 0.40 0.40 0.41 0.42 0.45 0.48 0.50 0.48 0.46 0.43 0.42 0.41 0.41 0.42 0.41 0.41 0.42 0.39 0.38 0.37 0.34 0.29 0.28 0.27 0.28 0.28 0.28 0.28 0.28 0.29 0.30 0.30 0.30 0.31 0.32 0.32 0.33 0.34 0.35 0.37 0.40 0.43 0.45 0.47 0.48 0.49 0.49 0.50 0.51 0.51 0.52 0.53 0.53 0.53 0.53 0.52 0.52 0.52 0.52 0.52 0.51 0.51 0.50 0.50
0.34 0.32 0.31 0.34 0.38 0.39 0.39 0.40 0.41 0.41 0.41 0.41 0.42 0.42 0.42 0.42 0.41 0.40 0.40 0.39 0.39 0.39 0.38 0.41 0.46 0.49 0.51 0.49 0.45 0.42 0.41 0.41 0.42 0.42 0.41 0.41 0.41 0.41 0.39 0.37 0.32 0.29 0.27 0.27 0.27 0.27 0.27 0.27 0.28 0.29 0.30 0.30 0.30 0.31 0.31 0.31 0.32 0.33 0.35 0.38 0.41 0.44 0.46 0.47 0.49 0.49 0.50 0.50 0.51 0.52 0.52 0.52 0.53 0.53 0.53 0.52 0.52 0.52 0.52 0.52 0.51 0.51 0.50 0.50 0.50
0.38 0.36 0.34 0.33 0.34 0.37 0.39 0.39 0.40 0.41 0.41 0.40 0.40 0.40 0.40 0.39 0.38 0.37 0.38 0.39 0.39 0.39 0.43 0.46 0.47 0.46 0.42 0.40 0.41 0.41 0.41 0.42 0.42 0.42 0.42 0.42 0.42 0.40 0.36 0.32 0.30 0.28 0.28 0.28 0.26 0.26 0.26 0.28 0.29 0.30 0.30 0.31 0.30 0.30 0.30 0.31 0.33 0.34 0.36 0.40 0.43 0.46 0.48 0.49 0.50 0.50 0.51 0.51 0.52 0.52 0.53 0.53 0.54 0.54 0.53 0.52 0.52 0.52 0.52 0.52 0.52 0.51 0.50 0.50 0.49
0.40 0.41 0.41 0.39 0.37 0.37 0.38 0.39 0.39 0.39 0.39 0.38 0.38 0.37 0.35 0.36 0.41 0.45 0.43 0.42 0.43 0.47 0.48 0.47 0.45 0.42 0.41 0.41 0.41 0.43 0.41 0.40 0.39 0.39 0.40 0.40 0.37 0.34 0.32 0.31 0.31 0.30 0.29 0.27 0.25 0.26 0.27 0.28 0.30 0.31 0.31 0.31 0.30 0.30 0.31 0.32 0.33 0.35 0.38 0.41 0.44 0.46 0.47 0.48 0.49 0.51 0.51 0.52 0.52 0.53 0.53 0.54 0.54 0.54 0.54 0.53 0.53 0.53 0.53 0.52 0.52 0.51 0.49 0.49 0.49
0.42 0.41 0.42 0.44 0.42 0.40 0.39 0.39 0.38 0.37 0.37 0.35 0.40 0.45 0.45 0.47 0.47 0.46 0.43 0.43 0.47 0.47 0.46 0.45 0.43 0.41 0.42 0.43 0.42 0.42 0.41 0.41 0.41 0.40 0.37 0.34 0.32 0.32 0.32 0.31 0.31 0.30 0.28 0.25 0.25 0.26 0.28 0.29 0.30 0.31 0.31 0.30 0.30 0.30 0.31 0.33 0.34 0.35 0.37 0.40 0.43 0.45 0.47 0.49 0.50 0.51 0.51 0.52 0.53 0.53 0.54 0.54 0.54 0.54 0.54 0.54 0.54 0.54 0.53 0.52 0.52 0.52 0.52 0.52 0.52
0.46 0.43 0.42 0.44 0.45 0.44 0.42 0.40 0.39 0.40 0.47 0.47 0.42 0.43 0.45 0.46 0.45 0.42 0.45 0.50 0.48 0.45 0.44 0.44 0.44 0.43 0.43 0.42 0.43 0.44 0.43 0.42 0.39 0.35 0.31 0.30 0.30 0.30 0.31 0.31 0.30 0.30 0.27 0.25 0.25 0.27 0.28 0.29 0.30 0.31 0.31 0.29 0.30 0.31 0.32 0.33 0.34 0.35 0.35 0.38 0.41 0.45 0.47 0.49 0.51 0.52 0.52 0.53 0.53 0.54 0.54 0.55 0.55 0.54 0.53 0.53 0.55 0.55 0.55 0.54 0.54 0.53 0.53 0.53 0.53
0.48 0.46 0.43 0.44 0.46 0.45 0.42 0.41 0.43 0.45 0.49 0.50 0.47 0.45 0.43 0.42 0.43 0.48 0.51 0.49 0.45 0.46 0.45 0.45 0.44 0.43 0.43 0.44 0.44 0.44 0.41 0.37 0.34 0.32 0.31 0.30 0.30 0.30 0.31 0.31 0.31 0.30 0.27 0.26 0.26 0.27 0.28 0.30 0.31 0.31 0.30 0.30 0.31 0.32 0.32 0.33 0.33 0.33 0.33 0.35 0.39 0.43 0.46 0.49 0.51 0.52 0.52 0.53 0.54 0.54 0.54 0.55 0.55 0.54 0.54 0.55 0.55 0.55 0.55 0.54 0.54 0.53 0.53 0.54 0.54
0.50 0.48 0.46 0.47 0.47 0.45 0.44 0.44 0.46 0.47 0.49 0.46 0.45 0.47 0.49 0.51 0.52 0.52 0.49 0.47 0.47 0.46 0.45 0.43 0.43 0.44 0.44 0.45 0.44 0.40 0.35 0.33 0.31 0.30 0.30 0.30 0.30 0.31 0.31 0.30 0.31 0.30 0.28 0.27 0.27 0.28 0.29 0.30 0.31 0.31 0.30 0.31 0.32 0.32 0.32 0.32 0.32 0.30 0.30 0.33 0.38 0.43 0.46 0.49 0.51 0.52 0.53 0.53 0.54 0.54 0.55 0.55 0.55 0.54 0.55 0.55 0.55 0.55 0.54 0.54 0.54 0.53 0.53 0.53 0.53
0.49 0.48 0.48 0.47 0.47 0.48 0.49 0.48 0.47 0.46 0.46 0.48 0.50 0.52 0.54 0.54 0.52 0.50 0.48 0.47 0.46 0.45 0.44 0.43 0.43 0.43 0.42 0.42 0.38 0.35 0.32 0.31 0.30 0.31 0.31 0.30 0.30 0.30 0.31 0.31 0.31 0.31 0.29 0.27 0.26 0.28 0.30 0.31 0.31 0.32 0.32 0.32 0.33 0.33 0.33 0.32 0.30 0.28 0.28 0.31 0.36 0.42 0.46 0.49 0.50 0.52 0.53 0.53 0.53 0.54 0.54 0.54 0.54 0.55 0.54 0.55 0.56 0.55 0.54 0.54 0.54 0.53 0.52 0.52 0.53
0.51 0.49 0.49 0.49 0.49 0.50 0.51 0.52 0.51 0.51 0.51 0.53 0.53 0.53 0.52 0.49 0.48 0.46 0.46 0.45 0.45 0.45 0.44 0.44 0.43 0.41 0.38 0.34 0.33 0.32 0.31 0.31 0.31 0.31 0.30 0.30 0.30 0.31 0.33 0.32 0.31 0.30 0.28 0.25 0.26 0.29 0.31 0.31 0.32 0.32 0.32 0.32 0.32 0.33 0.32 0.30 0.28 0.26 0.27 0.30 0.36 0.41 0.45 0.48 0.51 0.53 0.54 0.53 0.53 0.54 0.54 0.54 0.54 0.54 0.55 0.56 0.56 0.56 0.55 0.55 0.55 0.54 0.53 0.52 0.52
0.54 0.54 0.53 0.53 0.52 0.53 0.53 0.53 0.54 0.53 0.52 0.50 0.49 0.48 0.48 0.48 0.48 0.48 0.48 0.47 0.46 0.45 0.44 0.44 0.40 0.37 0.35 0.32 0.31 0.31 0.31 0.31 0.31 0.30 0.29 0.30 0.32 0.33 0.33 0.32 0.31 0.30 0.27 0.25 0.28 0.30 0.31 0.32 0.32 0.32 0.32 0.31 0.31 0.32 0.31 0.28 0.26 0.24 0.26 0.31 0.37 0.42 0.45 0.49 0.52 0.53 0.54 0.54 0.54 0.54 0.54 0.54 0.54 0.55 0.56 0.56 0.57 0.57 0.56 0.56 0.57 0.55 0.54 0.53 0.52
0.57 0.56 0.55 0.54 0.53 0.52 0.51 0.51 0.50 0.49 0.49 0.48 0.48 0.48 0.48 0.48 0.48 0.48 0.47 0.46 0.45 0.44 0.42 0.40 0.37 0.35 0.33 0.32 0.31 0.31 0.31 0.31 0.29 0.28 0.27 0.29 0.31 0.33 0.32 0.32 0.30 0.28 0.25 0.26 0.29 0.30 0.31 0.31 0.32 0.32 0.32 0.31 0.31 0.30 0.29 0.26 0.24 0.24 0.25 0.31 0.37 0.41 0.44 0.48 0.51 0.53 0.54 0.55 0.55 0.55 0.54 0.53 0.54 0.55 0.56 0.57 0.57 0.57 0.56 0.57 0.57 0.56 0.55 0.55 0.54
0.53 0.52 0.51 0.51 0.50 0.49 0.49 0.50 0.49 0.49 0.49 0.49 0.49 0.48 0.48 0.48 0.47 0.46 0.45 0.43 0.42 0.40 0.38 0.37 0.35 0.34 0.33 0.31 0.31 0.31 0.30 0.29 0.28 0.27 0.27 0.30 0.32 0.33 0.32 0.31 0.30 0.27 0.25 0.28 0.30 0.30 0.31 0.31 0.32 0.32 0.31 0.30 0.30 0.29 0.27 0.25 0.24 0.23 0.25 0.30 0.36 0.40 0.43 0.46 0.48 0.51 0.53 0.55 0.55 0.55 0.54 0.53 0.54 0.55 0.56 0.56 0.56 0.57 0.56 0.56 0.57 0.58 0.57 0.57 0.56
0.51 0.51 0.50 0.50 0.50 0.50 0.50 0.50 0.49 0.49 0.48 0.48 0.48 0.47 0.47 0.46 0.45 0.43 0.41 0.40 0.39 0.38 0.37 0.35 0.34 0.33 0.31 0.30 0.30 0.29 0.28 0.27 0.26 0.25 0.27 0.30 0.32 0.32 0.32 0.31 0.29 0.27 0.27 0.28 0.29 0.30 0.30 0.31 0.31 0.31 0.30 0.30 0.29 0.28 0.26 0.25 0.23 0.23 0.25 0.30 0.35 0.38 0.42 0.44 0.45 0.48 0.51 0.53 0.55 0.55 0.54 0.54 0.54 0.55 0.56 0.56 0.56 0.57 0.57 0.57 0.57 0.57 0.57 0.58 0.57
0.52 0.52 0.51 0.51 0.50 0.50 0.50 0.50 0.49 0.48 0.47 0.47 0.46 0.45 0.45 0.44 0.42 0.41 0.40 0.39 0.38 0.36 0.35 0.34 0.31 0.29 0.28 0.28 0.27 0.26 0.26 0.25 0.24 0.25 0.27 0.30 0.31 0.32 0.32 0.31 0.28 0.27 0.28 0.28 0.29 0.29 0.30 0.31 0.30 0.29 0.29 0.29 0.27 0.26 0.26 0.24 0.23 0.24 0.25 0.29 0.34 0.37 0.40 0.42 0.44 0.46 0.48 0.51 0.53 0.54 0.54 0.53 0.54 0.54 0.55 0.55 0.56 0.57 0.57 0.57 0.57 0.57 0.57 0.57 0.57
0.48 0.48 0.47 0.47 0.47 0.47 0.47 0.47 0.46 0.46 0.45 0.45 0.45 0.45 0.43 0.41 0.39 0.39 0.38 0.37 0.35 0.33 0.32 0.30 0.28 0.27 0.27 0.27 0.27 0.26 0.26 0.25 0.25 0.26 0.28 0.31 0.32 0.31 0.31 0.30 0.29 0.28 0.28 0.28 0.29 0.29 0.29 0.30 0.28 0.28 0.27 0.27 0.25 0.25 0.26 0.24 0.24 0.24 0.25 0.28 0.32 0.35 0.38 0.40 0.42 0.43 0.45 0.48 0.50 0.52 0.52 0.52 0.52 0.52 0.53 0.54 0.55 0.56 0.56 0.56 0.57 0.57 0.57 0.56 0.57
Wind_Speed
15 15 16 17 18 18 17 17 18 19 18 17 16 16 15 15 14 13 12 12 11 11 10 9 9 9 9 9 9 9 9 8 8 8 8 8 8 8 8 8 7 8 8 8 7 7 7 7 8 8 7 7 7 7 7 7 8 8 8 8 8 9 9 10 11 13 13 13 13 14 15 15 15 15 15 15 16 16 16 16 16 16 16 16 17
14 14 15 17 18 19 18 17 18 19 19 19 18 17 17 17 16 15 14 13 12 12 11 11 11 10 10 10 11 11 11 11 11 11 10 10 10 10 10 10 10 10 10 10 10 10 9 9 9 9 9 9 9 9 9 9 9 9 9 9 10 10 11 11 12 13 14 15 15 15 16 16 16 17 17 17 17 17 17 17 17 17 17 17 17
15 15 15 16 17 18 18 18 18 19 20 20 20 19 19 19 18 17 16 15 14 14 13 13 12 12 12 12 12 12 13 13 13 13 13 13 12 12 13 13 13 13 13 13 12 12 11 11 11 11 11 11 11 10 10 10 10 10 11 11 12 12 13 13 13 14 15 16 17 17 17 17 17 18 18 18 19 19 19 19 19 19 18 18 18
14 14 14 14 16 17 18 18 18 19 19 20 20 20 20 20 20 20 18 18 17 16 16 15 15 14 14 14 14 14 14 15 15 15 15 15 15 15 15 15 15 15 15 15 14 14 13 13 13 13 12 12 12 12 12 12 12 12 12 13 13 14 15 15 15 15 16 16 17 18 18 19 19 19 20 20 20 20 21 21 21 21 21 20 20
13 13 14 14 16 17 18 18 19 19 19 19 19 20 20 20 20 21 21 20 20 19 19 18 18 17 16 16 16 16 17 17 17 17 17 17 17 16 16 16 16 16 16 16 16 15 15 14 14 14 14 14 14 14 14 14 14 14 14 15 15 16 16 16 16 16 17 18 18 18 19 19 20 20 20 21 21 22 22 22 22 23 23 23 22
13 14 15 16 17 18 19 19 19 19 20 20 19 19 19 19 20 21 22 21 21 21 21 21 21 20 20 19 19 19 19 19 19 19 19 19 19 19 18 18 18 17 17 17 16 16 16 15 15 15 15 15 15 15 15 15 15 16 16 16 17 17 17 17 18 18 18 19 19 19 20 20 21 21 21 21 22 22 23 23 24 24 24 25 25
14 15 16 16 18 19 19 19 19 19 20 21 21 20 21 21 21 21 21 21 21 21 21 22 22 23 23 22 21 21 20 20 21 22 23 23 22 22 21 20 20 19 19 18 17 17 17 17 17 17 17 17 16 16 16 16 17 17 17 17 18 18 18 18 19 19 19 20 20 21 21 21 22 22 23 23 23 23 23 24 25 25 25 26 26
15 16 16 17 17 19 19 20 20 20 21 22 22 22 22 23 22 22 22 22 22 21 21 22 22 22 23 23 22 22 22 21 22 23 24 25 25 24 23 23 22 22 21 20 20 19 19 19 19 19 19 19 19 19 18 19 19 19 19 19 20 20 20 20 20 20 20 21 21 22 23 23 23 24 24 24 24 24 24 25 25 26 26 27 27
16 16 17 17 18 18 19 19 20 21 22 23 23 23 23 23 23 23 23 23 23 23 23 23 23 22 22 22 23 23 23 23 23 23 23 24 25 25 25 25 24 24 24 23 22 22 22 22 22 21 21 21 21 21 21 21 21 21 22 22 21 21 21 21 21 22 22 22 23 24 24 25 25 25 26 26 26 26 26 26 27 27 28 28 28
17 17 18 18 18 18 19 19 20 20 21 22 23 23 23 23 23 24 24 25 25 25 25 25 25 24 24 24 24 24 24 24 25 25 24 23 24 25 25 25 25 25 25 25 25 25 24 24 24 24 24 23 23 23 24 23 23 23 23 23 23 23 23 24 24 24 24 25 25 25 26 26 27 27 27 28 28 28 28 28 29 29 29 29 29
18 18 18 18 18 19 19 19 19 19 20 20 21 21 22 22 23 23 24 24 25 25 25 25 25 25 25 25 25 25 25 25 25 26 26 25 25 25 26 26 26 27 27 27 27 27 26 26 26 26 26 25 25 26 26 26 26 26 26 26 26 27 27 27 28 28 28 28 28 28 28 28 29 29 29 29 30 30 30 30 31 30 30 30 30
19 19 19 19 19 19 19 19 19 19 19 19 20 20 20 21 21 22 22 23 23 23 24 25 25 25 25 25 26 26 26 26 26 26 26 27 27 27 28 28 28 28 29 29 29 29 28 28 28 28 28 28 28 28 28 28 28 29 29 29 30 30 30 30 30 31 31 31 31 31 31 31 31 31 31 31 32 32 32 32 32 32 32 32 32
21 21 21 21 20 20 20 20 20 20 20 20 20 20 20 20 21 21 22 22 22 23 23 24 24 25 25 25 26 26 27 27 27 28 28 28 29 29 29 30 30 31 31 31 31 31 30 30 30 30 30 30 30 30 30 30 30 31 31 32 32 32 32 32 33 33 33 33 33 33 33 33 33 33 33 34 34 34 35 35 35 35 35 35 35
23 22 22 22 22 21 21 21 21 21 20 20 20 20 20 20 21 21 22 22 23 23 24 25 25 25 26 26 26 27 27 28 29 29 29 29 30 30 31 31 32 32 32 32 32 32 32 31 31 31 32 32 32 32 32 32 32 32 33 33 34 34 34 34 34 34 34 34 35 35 35 35 36 36 36 36 36 36 37 37 37 38 38 38 38
24 24 23 23 22 22 22 22 21 21 21 20 21 21 21 21 21 22 22 23 23 24 25 25 26 26 26 27 27 27 27 28 28 28 29 30 30 30 31 32 32 32 32 33 32 32 32 32 32 32 32 33 33 33 33 33 33 33 34 34 34 34 34 34 35 35 35 36 36 37 37 37 38 38 38 38 38 38 39 40 40 40 41 41 41
24 24 24 23 23 23 23 23 22 22 22 22 22 23 23 23 23 24 24 24 25 25 26 26 27 27 27 27 27 28 28 28 28 28 28 29 29 29 30 31 31 31 31 31 31 31 31 32 31 32 32 32 33 33 34 34 34 34 34 35 35 34 34 35 35 36 36 37 38 38 39 39 40 40 40 41 41 41 41 42 42 42 42 43 42
24 24 24 25 24 24 24 24 23 23 23 23 23 24 24 24 25 25 25 25 26 26 27 27 27 27 27 27 28 28 28 28 28 28 28 27 27 28 28 28 29 29 30 30 30 30 30 31 31 32 32 32 33 33 33 34 34 35 35 35 35 35 35 36 37 37 38 39 39 40 41 41 42 42 42 43 43 43 42 42 42 42 42 42 42
25 24 25 25 26 26 26 26 26 25 25 25 25 25 25 25 25 25 25 26 26 27 27 27 27 27 28 28 28 28 28 28 28 28 27 27 27 27 27 27 27 28 28 29 29 29 29 30 30 31 32 32 33 33 33 34 34 35 35 35 35 36 37 37 38 38 39 40 41 41 42 42 43 43 43 43 43 42 42 42 41 41 41 42 42
26 26 26 26 26 26 27 27 27 27 27 27 27 26 26 26 27 26 26 26 27 27 27 28 28 28 29 29 29 28 28 28 29 28 28 27 27 27 27 27 27 28 28 29 29 29 29 30 30 31 32 32 33 33 33 34 34 35 35 35 36 36 37 37 38 39 39 40 40 41 41 41 42 42 42 42 41 41 41 41 41 41 41 41 41
29 29 29 29 28 28 28 28 28 28 27 28 28 28 28 28 28 28 28 28 28 28 28 28 29 29 29 29 29 29 29 29 29 29 28 28 28 28 28 28 28 28 29 29 29 29 30 30 31 31 32 32 33 33 34 34 35 35 36 36 36 37 37 38 38 39 39 40 40 40 40 40 40 40 40 40 40 40 40 40 40 40 41 41 41
32 31 31 31 31 30 30 29 29 29 29 29 29 30 30 30 30 30 30 29 29 29 29 29 29 30 30 30 29 29 29 29 29 29 28 28 28 28 28 28 28 29 29 29 29 30 30 31 31 32 32 32 33 34 34 35 35 36 36 36 37 37 38 38 38 39 39 39 39 39 39 40 40 40 40 40 40 40 40 40 40 40 41 41 41
34 34 34 34 33 33 32 32 32 31 31 31 31 32 32 31 31 31 31 30 30 30 30 30 30 30 30 30 29 29 29 29 28 28 27 27 27 27 27 28 28 28 29 29 29 30 30 31 32 32 32 33 34 34 35 35 36 36 36 36 37 37 38 38 38 38 39 39 39 39 39 39 39 39 39 40 40 40 40 40 40 40 41 41 42
36 36 36 36 36 35 34 34 34 33 33 33 33 33 33 32 32 32 32 31 31 31 31 30 30 29 29 29 29 28 28 27 27 27 27 27 27 27 27 27 28 28 28 28 28 29 30 31 31 32 32 33 34 34 35 35 35 35 36 36 36 37 37 37 38 38 38 38 38 39 39 39 39 39 39 39 39 39 39 40 40 41 41 42 43
38 38 38 38 38 37 37 36 35 35 34 34 34 34 34 33 33 32 32 32 31 31 31 30 29 29 29 29 28 28 28 27 27 27 27 27 27 27 27 27 27 27 27 27 28 29 30 30 31 32 32 33 33 33 34 34 34 34 34 34 35 35 35 36 36 37 37 37 37 37 37 38 38 38 38 38 38 39 40 40 41 41 42 42 43
40 40 39 38 38 37 37 37 37 36 36 36 36 35 35 34 34 33 33 33 32 31 31 30 29 29 29 28 28 28 27 27 27 27 27 27 26 27 27 27 26 26 27 27 27 28 28 29 30 30 30 31 31 31 32 32 32 32 32 32 33 33 34 34 34 35 35 36 36 36 37 37 37 38 38 39 39 40 40 41 41 42 42 43 44
40 40 39 39 38 37 37 37 37 37 36 36 36 35 35 34 34 34 34 33 33 32 31 30 29 29 28 28 28 27 27 27 27 27 26 26 26 26 25 25 25 25 25 25 26 26 27 27 27 27 27 28 28 28 28 29 29 29 30 31 31 31 32 32 33 34 34 35 35 36 37 37 38 38 39 39 40 40 41 41 42 42 42 43 44
39 39 39 38 38 37 37 37 37 36 36 36 35 35 35 35 34 34 33 33 33 32 32 31 30 29 28 28 27 27 27 27 26 26 26 26 25 24 23 23 23 23 24 25 25 25 25 25 25 25 25 25 25 25 26 27 27 28 29 29 30 30 31 31 32 33 34 35 36 37 37 38 38 39 39 40 40 41 41 42 42 43 43 43 44
39 39 38 38 38 37 37 37 37 37 36 36 36 35 35 35 34 34 33 32 32 32 31 30 29 28 27 27 26 26 26 26 26 25 25 24 23 22 22 22 23 24 24 24 24 24 23 23 23 23 23 23 24 24 25 26 26 27 28 28 29 29 30 31 32 34 35 36 37 37 38 39 39 40 40 41 41 41 42 42 43 43 43 43 43
39 39 38 38 38 38 37 37 37 37 37 36 36 35 34 34 33 33 32 31 31 30 29 28 28 27 27 27 27 26 26 25 24 23 23 22 21 21 22 22 23 23 22 22 22 22 22 22 22 22 22 23 23 24 24 25 25 26 27 27 28 29 31 32 33 34 35 36 37 38 39 39 40 40 41 41 41 41 41 41 42 42 42 41 41
40 39 39 38 37 37 37 36 36 36 36 35 34 34 33 32 32 31 31 30 30 29 28 28 28 28 28 28 27 26 25 24 23 22 21 20 21 21 21 21 21 21 20 20 20 20 20 21 21 21 21 22 22 22 23 24 24 25 27 28 29 30 31 32 33 35 36 37 38 38 39 39 40 40 40 40 40 39 39 39 39 39 39 39 38
40 40 39 38 37 37 36 36 35 34 34 34 34 33 32 31 31 30 30 29 28 28 27 27 27 27 27 26 25 24 23 23 22 22 21 21 21 20 20 19 18 18 18 18 19 19 19 19 19 20 20 20 20 21 22 23 24 26 27 29 30 31 32 33 34 35 36 36 37 37 37 37 37 37 37 37 37 37 36 35 35 35 35 35 35
39 39 38 38 38 37 36 35 34 33 33 33 32 32 31 30 29 28 27 26 26 25 25 25 24 24 24 22 22 22 22 22 21 21 20 20 19 18 17 17 16 17 17 18 18 18 17 17 17 17 17 18 19 21 22 23 25 26 28 29 30 31 32 33 33 34 34 34 35 35 35 34 34 34 33 33 32 32 31 30 30 30 30 30 30
39 38 37 37 37 36 36 35 34 33 32 32 31 31 30 29 27 25 24 24 23 23 23 23 22 22 22 21 21 21 20 20 20 19 18 17 16 16 15 16 16 16 16 16 16 15 15 15 15 15 16 18 19 21 22 23 24 25 27 28 29 30 31 32 32 32 33 32 32 32 31 31 30 30 29 28 27 26 26 25 25 25 25 25 25
39 38 37 36 36 35 35 34 33 33 32 31 30 29 28 27 26 24 23 22 22 22 21 21 21 21 20 20 19 19 19 18 18 17 16 15 15 15 15 15 15 15 14 13 13 12 12 13 14 15 16 17 18 19 20 21 23 24 26 27 28 29 30 31 31 31 31 30 29 29 28 27 26 25 24 23 22 22 21 21 21 21 21 21 21
39 38 37 36 35 34 33 33 32 32 32 31 29 28 27 26 25 24 23 22 21 21 21 20 20 20 19 18 18 17 17 17 16 15 15 15 15 14 14 14 13 12 12 11 11 11 11 12 13 13 14 15 16 17 19 21 22 24 25 27 28 29 29 29 29 28 27 27 26 25 23 22 21 20 20 19 18 18 18 18 18 19 19 19 20
37 37 37 36 34 33 32 31 31 31 30 29 28 28 27 25 24 23 22 21 21 20 19 19 18 18 18 17 17 16 15 15 14 14 14 14 14 14 13 12 11 11 10 10 10 10 10 10 10 11 12 13 15 17 19 20 22 23 25 26 28 28 27 26 25 25 24 23 22 21 20 19 18 17 16 16 16 17 17 18 18 19 20 20 20
34 35 35 35 34 33 32 31 30 29 29 28 28 27 26 25 24 23 21 20 20 19 18 18 17 17 17 16 15 14 13 13 13 13 13 13 12 12 11 11 10 9 9 8 8 7 7 7 8 9 11 13 15 17 18 20 21 23 25 27 27 27 25 24 23 22 21 20 19 19 18 16 15 15 15 16 17 17 18 19 19 20 21 21 21
31 31 31 32 33 32 31 30 29 29 28 27 26 25 25 23 22 21 20 19 19 18 18 18 18 17 16 14 13 12 12 12 12 12 12 11 11 10 10 10 9 8 7 6 6 5 5 6 7 9 11 12 14 16 18 20 21 23 25 27 27 25 23 22 21 20 19 18 17 16 15 14 14 14 15 16 17 18 18 19 19 20 20 20 20
27 27 26 27 28 29 29 28 27 27 26 25 24 24 23 22 21 20 19 18 18 18 18 18 17 16 14 13 13 12 12 12 12 11 11 10 10 9 9 9 8 7 6 5 4 4 4 5 7 9 10 12 14 16 18 20 22 24 26 26 25 23 22 20 20 19 17 16 15 14 14 14 14 15 16 16 17 18 18 18 18 19 19 19 19
22 23 22 22 23 24 25 25 24 24 23 23 23 23 22 21 21 20 19 18 18 19 19 17 15 14 13 13 13 13 12 12 11 10 10 10 9 9 9 8 7 6 6 4 3 3 4 5 7 9 11 12 14 16 19 21 23 24 26 25 23 21 20 19 19 17 16 15 14 14 14 14 14 15 16 17 17 17 17 17 18 17 18 18 18
16 18 19 19 19 20 21 21 22 22 21 21 22 22 21 21 21 20 19 19 19 18 17 16 14 14 13 13 13 12 11 10 10 10 10 10 9 9 9 8 7 6 5 4 3 3 4 5 7 9 10 12 15 17 19 21 23 24 25 25 23 21 19 19 18 17 15 14 14 14 14 14 15 15 16 16 16 16 16 16 16 16 16 16 16
13 15 17 17 17 17 18 19 20 20 20 20 20 20 21 21 21 20 19 19 18 17 16 15 14 14 13 13 12 10 10 10 10 11 11 11 10 9 9 8 7 6 5 4 3 3 4 6 7 9 10 13 15 17 20 22 23 24 25 25 23 21 19 18 18 16 15 14 14 14 14 14 15 15 15 15 15 15 15 15 15 15 15 14 14
12 14 15 16 16 16 17 17 18 18 19 19 20 20 20 20 20 20 20 19 18 16 15 14 13 13 13 12 12 11 10 11 11 11 11 10 10 9 8 8 7 6 4 3 3 3 4 5 7 8 11 13 15 17 19 21 23 24 24 24 24 22 20 19 18 17 15 14 13 14 14 14 15 15 14 14 14 15 15 14 14 14 14 13 12
15 15 16 16 16 16 16 17 17 18 18 19 20 20 19 19 20 20 19 18 17 15 14 13 12 12 13 13 12 12 12 12 12 11 11 10 9 9 8 7 6 5 4 3 3 3 4 6 7 9 11 13 16 17 19 21 23 24 24 24 24 23 21 19 18 17 15 14 14 14 14 14 13 13 13 13 14 14 14 13 13 13 13 13 12
19 19 18 18 18 17 17 17 18 18 18 19 19 19 19 19 19 18 17 16 15 14 13 13 13 13 13 13 13 13 13 12 12 11 10 9 9 8 7 6 5 5 4 3 3 4 5 6 7 9 11 14 15 17 19 21 23 24 24 24 24 23 22 21 19 17 15 15 14 15 14 13 12 12 13 13 14 14 13 12 12 12 12 12 12
18 18 18 18 18 18 17 17 18 18 19 19 19 18 18 17 17 16 15 14 14 13 13 14 13 13 13 13 13 13 13 12 11 9 9 9 8 7 6 6 5 5 4 3 3 4 5 6 8 10 12 13 15 17 19 21 23 24 24 24 24 23 23 22 20 18 16 15 15 15 14 12 11 12 12 13 14 13 12 11 10 10 11 12 12
18 18 18 18 18 18 18 18 18 19 18 17 17 16 16 15 15 14 14 13 13 13 13 13 13 13 13 13 13 13 12 11 10 9 9 8 8 7 6 6 5 5 4 3 4 5 5 7 9 10 12 13 15 17 19 21 22 23 24 24 24 23 24 23 22 19 17 16 16 15 13 12 11 11 12 13 13 13 12 10 9 9 10 10 11
21 20 19 19 18 18 18 18 18 17 16 15 15 15 14 14 14 13 13 13 13 13 13 13 13 13 13 13 12 12 11 10 9 9 9 8 7 6 6 5 5 5 4 4 4 5 6 7 9 11 12 13 15 17 18 20 21 22 24 24 24 24 25 24 23 21 19 18 17 15 13 12 11 11 11 12 12 12 11 10 9 9 9 9 9
20 20 19 18 17 17 16 16 15 15 14 14 14 13 13 13 13 13 13 13 13 13 13 13 13 13 12 12 11 10 9 9 9 9 8 7 6 6 6 5 5 5 4 5 5 6 7 8 10 10 11 13 15 16 18 19 20 21 23 24 24 25 25 25 24 22 21 19 18 16 14 12 11 11 11 11 12 11 10 10 9 9 9 9 8
17 17 16 16 15 14 14 14 13 13 12 12 12 11 11 12 12 13 13 13 12 12 12 12 11 11 10 10 9 9 8 8 8 8 7 6 6 6 6 5 5 5 5 5 6 7 8 8 9 10 11 13 14 16 17 18 19 20 22 23 24 25 25 25 24 24 22 21 19 18 15 13 12 11 11 11 11 11 10 9 9 9 9 9 8
14 14 13 13 12 12 11 11 11 11 11 11 10 10 10 11 11 12 12 12 12 11 11 10 10 9 9 8 8 8 8 8 9 8 7 7 7 6 6 6 6 6 6 6 7 7 8 8 9 10 11 12 14 15 17 18 19 20 21 22 23 24 25 25 24 24 24 22 21 19 17 15 13 12 11 11 11 10 10 10 9 9 9 9 8
Wind_Direction
238 236 236 235 234 232 231 231 230 228 227 227 230 231 232 234 234 235 236 236 235 235 237 238 240 242 243 245 246 246 246 245 247 248 248 250 251 250 251 251 252 255 256 258 259 260 262 264 267 270 272 274 276 280 285 288 290 290 289 288 288 290 290 289 286 285 286 286 285 286 286 285 284 284 284 282 282 283 282 281 280 279 279 278 277
237 239 238 235 233 231 229 229 230 229 229 231 234 234 235 235 233 234 237 238 237 237 238 239 241 243 244 246 248 250 250 250 252 253 254 256 256 258 259 258 257 259 259 260 261 263 265 265 266 268 271 274 276 278 282 285 286 287 287 286 286 288 289 289 288 286 286 287 287 287 287 286 285 285 285 283 283 283 281 280 280 279 279 279 278
241 240 237 234 232 229 229 231 232 232 234 236 238 238 238 236 233 233 236 238 239 240 241 242 244 246 248 250 251 253 254 254 255 256 256 257 258 260 262 262 261 261 262 262 262 264 265 266 266 268 271 273 276 277 279 281 283 284 286 286 286 288 288 288 287 287 287 287 287 287 287 287 285 285 285 284 283 283 281 280 280 279 278 278 277
243 238 235 234 232 230 231 234 235 235 237 239 240 240 239 237 234 234 236 238 241 243 244 245 247 248 251 253 255 258 259 258 258 258 258 259 260 261 261 261 262 262 263 263 263 264 265 266 267 269 270 272 275 276 277 279 280 281 283 285 287 288 289 288 288 287 288 288 287 287 286 286 285 285 285 284 282 281 280 280 279 278 278 277 276
245 241 239 238 237 236 236 238 239 238 239 240 241 241 241 239 237 237 239 241 243 245 246 247 248 250 252 256 259 261 262 260 260 259 260 260 260 261 260 260 261 262 264 264 263 264 265 266 268 269 270 272 274 276 277 278 279 280 282 284 286 287 288 288 288 288 289 290 289 288 287 286 285 284 285 285 283 281 280 279 278 278 277 277 276
251 247 246 244 242 241 240 241 242 240 239 241 243 243 244 244 243 243 244 245 245 245 246 248 250 252 255 258 261 262 262 261 261 261 261 260 260 260 260 260 260 261 263 263 262 263 265 266 267 267 269 271 273 275 277 277 278 280 282 283 285 286 287 287 287 288 289 290 290 290 290 288 287 286 286 285 284 283 282 280 278 277 277 277 276
256 252 249 249 248 247 246 245 244 243 243 244 245 246 246 246 247 247 247 248 247 246 248 251 253 255 256 258 260 261 261 262 262 262 262 260 259 260 259 259 259 260 261 261 260 262 264 267 267 267 268 270 272 273 275 276 277 278 280 282 285 286 287 286 287 287 288 290 290 290 290 290 289 288 287 287 285 283 283 283 281 279 278 278 277
258 253 252 253 253 253 251 249 248 249 249 248 248 250 249 249 250 250 250 250 250 251 253 254 256 258 258 257 258 260 261 262 264 265 265 261 258 258 258 257 258 258 258 259 260 261 264 266 267 268 269 270 271 273 275 277 278 278 279 281 284 285 286 286 287 288 288 289 290 290 290 290 290 289 288 288 287 285 284 283 282 281 280 278 277
259 256 255 257 257 256 254 253 252 253 253 252 252 252 251 252 252 253 253 253 254 256 258 258 259 261 260 259 259 260 261 263 265 267 267 263 257 255 256 257 257 257 257 257 259 261 264 265 266 267 270 271 272 274 276 278 279 279 280 281 282 283 284 285 287 287 288 289 290 290 290 289 290 290 289 288 287 286 284 283 282 281 281 280 278
261 260 260 260 259 258 256 255 255 255 254 254 254 253 253 253 254 255 256 258 259 260 261 262 262 262 261 262 262 262 263 264 264 265 266 264 259 257 257 257 257 258 257 257 258 260 262 264 265 266 268 270 272 274 276 277 278 279 280 281 281 281 282 283 284 285 287 288 289 289 289 289 289 290 289 288 287 286 285 284 283 282 281 281 279
263 262 261 260 259 258 257 255 255 256 255 255 254 254 255 256 257 258 259 260 261 262 263 264 264 264 264 264 264 264 264 265 264 264 263 263 261 259 259 259 258 258 258 258 259 260 262 264 264 265 267 269 271 274 275 276 277 279 280 280 281 281 281 282 283 283 284 285 286 287 288 288 288 288 288 288 287 285 284 284 283 283 282 281 279
262 262 262 260 258 256 255 254 254 255 256 256 255 255 256 256 257 258 259 260 261 262 263 264 264 265 265 266 266 266 266 266 265 264 264 263 263 262 261 261 261 260 259 260 261 262 263 263 264 265 267 269 271 273 274 275 277 279 280 280 280 280 280 281 281 282 283 283 284 285 285 285 286 287 287 287 286 285 284 283 282 282 281 280 278
260 260 261 260 257 256 254 253 254 255 255 255 256 256 256 256 257 257 258 260 261 262 263 264 264 265 265 266 267 267 268 267 266 265 265 264 264 264 264 263 263 262 261 261 261 261 262 262 263 264 266 268 271 273 274 276 278 279 280 281 281 280 280 280 280 281 281 282 282 283 284 284 285 285 286 285 285 284 284 283 282 281 280 279 278
260 260 260 260 258 256 254 253 253 254 254 254 255 255 256 257 258 259 260 260 261 262 263 263 264 265 266 267 268 269 269 268 267 267 267 267 266 266 266 265 265 264 263 262 261 261 260 261 262 263 265 268 270 272 273 275 277 278 280 281 281 280 280 280 280 280 281 281 282 283 284 284 284 284 285 284 283 283 283 282 282 281 280 279 278
260 259 259 259 258 256 255 254 253 253 252 253 254 255 257 258 259 261 262 262 263 263 264 264 265 266 267 268 269 270 271 270 270 269 269 269 268 267 267 266 266 265 264 263 261 260 261 262 263 265 266 268 270 271 273 274 275 277 279 280 280 280 280 280 280 280 280 281 282 283 284 284 284 284 284 283 282 282 281 281 280 280 280 279 278
259 259 258 258 257 256 256 255 254 253 253 254 256 258 260 261 261 262 264 265 266 266 267 266 267 268 269 269 269 270 271 272 271 271 271 270 270 269 267 267 266 266 264 263 261 261 262 263 265 266 268 270 271 272 272 273 274 276 277 278 278 278 279 279 280 280 281 281 281 282 283 283 284 284 284 283 282 281 281 280 279 279 279 278 278
260 259 258 258 257 257 256 256 255 255 255 256 257 259 260 261 262 264 265 267 268 269 269 269 269 269 269 269 269 270 271 272 272 271 271 271 271 270 268 267 266 265 264 263 262 262 263 264 265 267 269 270 271 272 272 273 274 276 276 277 278 278 278 279 279 280 280 280 281 282 282 283 283 283 283 283 282 282 281 280 279 279 277 277 276
259 260 260 259 257 256 255 256 256 257 257 258 258 259 259 261 263 264 266 268 269 270 270 270 270 270 269 269 269 270 271 272 271 271 271 271 271 271 269 268 267 265 264 264 263 263 264 265 266 267 268 270 271 272 273 274 275 276 277 277 278 278 278 278 279 279 280 281 281 282 282 283 283 283 283 283 282 282 280 279 279 278 277 276 275
260 261 262 260 258 257 256 256 256 257 257 258 258 258 260 263 264 265 266 268 269 270 271 271 271 271 271 270 270 270 271 271 270 270 270 270 270 270 269 268 267 266 265 265 265 265 266 267 267 267 268 269 271 273 274 275 276 277 277 278 279 279 279 279 280 281 281 281 281 282 282 282 283 283 282 282 282 281 280 279 279 278 277 276 276
261 262 261 260 259 259 258 257 257 257 257 257 258 259 261 263 264 265 267 268 270 271 272 272 272 271 271 271 270 270 270 270 270 270 270 269 269 270 269 268 267 267 266 266 266 267 268 269 269 269 269 270 272 274 275 276 277 278 278 279 279 279 280 280 281 281 282 282 282 282 282 282 282 282 282 282 281 281 280 279 278 278 277 277 276
260 261 260 260 260 260 260 259 259 259 259 259 260 262 263 264 264 266 267 269 270 271 272 273 272 272 271 271 270 270 270 270 270 269 269 269 269 269 270 269 267 267 267 267 268 268 269 269 269 270 271 272 273 275 276 277 278 279 279 279 279 280 280 281 281 282 282 282 282 282 282 282 282 282 281 281 281 280 279 279 278 277 277 276 276
260 260 260 259 260 260 260 260 260 260 261 261 262 263 264 264 264 265 266 268 269 271 272 273 272 271 270 270 270 270 270 270 269 269 269 269 269 269 269 269 269 269 268 268 269 269 269 269 270 270 271 273 274 276 277 278 278 279 279 279 279 280 280 281 281 282 283 283 283 283 282 282 282 282 282 282 281 280 280 279 279 278 277 277 276
260 259 259 260 260 260 259 260 260 261 261 262 263 264 264 264 264 265 265 266 268 270 271 271 270 269 269 269 270 270 269 269 269 269 269 269 269 270 270 270 270 270 269 268 269 268 268 269 270 271 273 275 276 277 277 278 278 279 279 279 280 280 281 281 282 283 283 283 283 283 282 282 282 282 282 282 282 281 280 280 279 279 278 277 276
259 259 259 260 260 259 258 258 259 259 260 261 262 263 264 264 264 265 265 266 267 269 269 269 269 268 268 269 269 269 269 269 269 269 269 269 269 269 269 269 269 270 269 269 269 268 269 271 273 274 276 277 277 277 277 278 278 279 280 281 281 282 282 283 283 283 283 283 283 283 283 283 282 282 282 282 282 281 281 280 279 279 278 277 277
259 259 258 258 258 258 257 257 257 258 259 261 262 262 263 264 264 265 265 266 266 267 267 266 267 267 267 268 268 267 267 269 269 269 269 269 269 269 268 268 268 268 268 268 269 270 272 274 276 276 277 277 277 278 279 280 280 281 282 283 283 284 284 284 283 283 283 283 283 283 283 283 283 283 282 282 282 282 282 281 280 280 279 278 277
258 258 257 257 257 256 256 256 257 258 259 260 260 261 262 263 264 264 265 265 265 264 264 264 264 265 266 266 265 265 266 268 268 269 268 268 268 268 268 267 267 267 267 268 270 272 274 276 277 278 278 279 280 281 282 283 283 284 284 285 285 285 284 284 284 284 284 284 284 285 285 285 284 284 283 283 283 283 283 282 282 281 281 280 279
257 257 257 256 256 256 256 257 257 258 259 259 259 260 261 261 262 263 264 264 263 263 262 262 262 263 263 263 263 263 265 266 266 266 266 266 266 266 265 264 266 268 269 270 272 273 275 277 278 280 281 283 284 285 285 285 286 286 287 287 287 286 286 286 286 286 286 286 286 286 286 285 285 285 284 284 284 284 283 283 282 282 281 281 279
256 256 255 255 255 255 255 256 256 257 257 258 259 260 260 261 261 262 263 263 263 262 261 261 260 259 259 260 261 263 265 265 264 264 264 263 262 262 262 264 266 269 270 270 271 272 274 276 279 281 283 285 286 286 287 287 287 288 288 289 289 289 290 289 289 289 288 288 287 287 287 287 287 286 286 285 285 284 284 283 282 282 282 281 279
257 256 256 255 255 255 255 256 256 256 256 257 258 259 259 260 260 261 262 262 262 260 259 258 257 256 258 260 262 263 263 262 261 260 260 259 259 261 262 265 267 268 269 269 270 272 274 277 280 282 284 285 286 287 288 289 290 291 291 292 293 293 292 292 292 291 291 290 290 290 289 289 288 288 287 286 285 285 284 284 283 282 282 281 279
256 256 256 255 255 254 254 255 255 254 254 255 256 257 258 259 259 259 260 260 259 258 257 257 256 256 259 261 262 261 258 256 255 255 256 257 259 262 264 265 266 267 268 269 272 274 277 279 281 282 284 286 287 289 291 293 294 294 295 295 294 294 294 294 293 293 292 292 292 291 291 290 289 288 288 287 286 286 285 284 283 283 282 281 280
254 254 253 254 254 253 254 254 254 253 254 254 253 254 255 257 258 259 259 258 257 256 256 257 256 256 257 259 258 256 253 252 253 254 255 257 260 261 262 264 265 266 268 270 273 276 277 278 280 282 285 288 290 293 295 296 296 296 296 296 296 296 296 296 295 295 294 293 293 292 292 291 290 289 289 288 287 287 286 285 284 283 282 282 281
253 252 251 251 251 252 252 252 252 252 252 251 251 252 253 254 256 257 257 256 255 254 254 254 254 253 253 253 252 252 252 251 252 253 255 256 257 258 259 262 264 266 269 271 273 275 276 278 281 284 289 293 295 296 297 297 297 298 299 299 299 299 299 298 298 297 296 296 295 294 293 293 292 291 291 290 289 288 287 286 285 284 283 283 282
251 250 250 250 250 250 250 249 249 249 249 248 248 249 250 250 251 252 252 253 253 253 252 251 250 249 249 249 249 250 250 249 249 250 251 251 253 254 256 259 263 266 269 270 272 275 278 281 284 289 294 296 297 298 299 300 301 302 303 303 303 303 303 302 302 301 300 299 298 297 297 296 295 294 293 292 291 290 289 288 287 287 286 285 285
250 249 248 248 248 248 248 247 246 245 245 244 245 246 246 246 246 246 246 248 250 250 250 248 246 246 246 245 245 245 245 244 244 244 245 247 249 252 255 260 263 266 268 270 272 276 280 284 289 293 296 299 301 303 305 306 307 308 308 308 308 308 307 306 306 305 304 303 302 301 300 299 298 297 296 295 294 293 292 292 292 291 290 289 288
248 247 247 246 246 246 246 244 243 242 241 241 242 242 242 242 243 243 243 244 245 245 244 242 241 240 240 239 240 242 242 240 239 240 243 246 249 253 257 259 261 263 265 269 273 278 282 287 292 296 300 305 309 310 311 312 313 314 314 313 312 311 311 310 309 308 307 306 305 304 303 302 301 301 300 299 298 297 296 296 295 294 293 292 290
247 245 244 243 243 243 243 242 241 239 238 238 238 238 239 239 240 241 240 240 239 239 237 234 232 232 232 233 236 237 237 236 236 239 243 246 250 253 254 252 253 256 260 266 272 278 283 289 295 302 308 313 315 316 317 319 319 319 319 318 317 316 315 314 313 312 311 310 309 308 307 306 305 305 304 302 300 299 298 298 298 296 294 293 291
245 244 242 240 240 240 240 239 238 237 236 235 235 235 235 236 236 235 235 233 232 230 227 224 221 222 225 228 230 230 230 232 235 238 242 246 248 248 245 243 245 249 255 262 270 277 284 293 301 309 315 318 321 324 325 326 325 324 324 324 323 321 319 318 317 317 315 314 313 312 311 310 309 309 308 306 304 302 301 301 300 299 297 294 292
241 241 239 238 236 235 235 235 234 234 233 232 231 230 229 229 228 227 226 225 223 220 216 213 211 212 215 220 223 225 227 230 233 237 239 241 241 238 235 236 237 240 245 254 265 276 288 298 306 315 322 326 329 331 332 331 331 330 330 329 327 325 323 322 321 320 319 317 316 315 314 313 313 312 311 310 308 306 305 305 304 303 301 298 296
235 234 234 233 231 230 230 230 230 229 228 226 224 223 221 220 220 218 217 216 213 207 204 204 206 208 210 215 221 225 227 230 231 231 231 230 228 226 224 223 222 225 232 243 259 278 293 303 313 325 331 334 335 336 337 337 337 336 335 334 331 328 326 325 324 323 322 320 319 319 317 316 315 315 314 313 312 310 310 309 308 307 305 303 301
227 225 224 223 223 222 222 222 221 220 219 218 216 214 213 213 212 209 208 206 202 199 199 201 205 208 212 217 222 224 225 224 222 219 217 216 213 209 207 206 208 213 221 233 253 282 301 314 326 335 339 340 340 341 343 344 342 341 340 339 336 332 330 329 328 326 324 322 321 320 319 317 317 317 316 315 314 313 314 314 313 312 311 309 306
215 213 211 211 211 211 211 210 210 210 210 208 207 207 207 205 203 201 199 197 196 196 198 202 205 210 214 216 216 216 216 214 210 206 202 198 194 193 196 200 204 208 214 226 254 293 317 328 336 341 343 343 344 346 348 348 347 345 345 344 341 337 334 333 331 329 326 323 322 321 320 320 322 321 320 319 318 318 319 319 319 319 319 318 315
196 196 196 196 197 197 197 197 198 198 199 199 199 198 197 195 193 193 192 191 191 194 197 200 204 208 209 207 205 204 203 199 193 189 185 184 185 190 195 198 201 205 213 231 266 304 324 332 337 342 344 345 347 349 351 352 351 349 349 348 347 344 340 337 335 334 331 327 325 324 324 325 327 326 325 324 325 326 325 326 326 325 325 325 324
165 171 175 178 179 180 181 183 185 186 187 187 185 184 184 184 186 186 186 186 189 192 194 197 200 201 199 196 193 191 188 184 180 178 179 182 187 191 193 195 200 209 222 245 275 305 324 331 334 340 344 346 348 351 353 354 353 353 353 352 351 349 346 342 340 340 338 335 331 330 329 329 329 329 329 331 333 332 331 331 332 332 331 330 330
129 139 148 155 159 161 162 165 167 169 169 170 170 171 172 174 175 177 179 183 187 189 191 193 194 192 189 187 185 184 182 180 178 178 180 184 187 189 192 197 207 220 237 258 282 308 324 328 333 340 344 345 348 351 353 354 355 356 356 356 355 354 352 348 345 344 343 341 338 335 333 331 331 332 333 335 337 337 336 336 338 340 341 341 339
114 120 127 133 137 140 143 147 151 153 155 157 160 161 163 165 169 173 177 181 183 184 185 187 186 183 182 182 183 183 183 181 180 181 184 187 188 192 198 206 218 230 246 267 293 314 324 328 332 338 342 344 348 352 354 354 355 357 358 358 358 357 356 353 349 346 345 343 340 337 335 334 334 336 337 338 339 339 338 338 341 344 348 350 349
114 117 120 124 127 130 134 138 142 145 148 150 154 157 160 163 167 171 173 175 177 179 181 180 178 177 179 180 181 181 181 181 184 187 189 190 192 198 206 215 226 239 256 279 301 316 325 328 332 337 340 343 348 351 353 355 356 358 359 360 360 359 358 356 353 350 347 344 341 340 338 336 336 339 340 341 341 340 339 339 342 346 349 351 353
112 115 118 121 124 127 130 133 136 140 142 145 149 153 156 158 162 165 168 171 174 176 176 175 175 175 176 177 178 179 182 187 192 193 193 195 200 206 213 222 235 249 267 287 304 315 322 327 332 336 340 343 348 351 353 354 356 358 359 0 1 1 360 359 357 354 351 347 344 343 341 338 338 340 343 343 344 344 344 344 346 347 348 350 353
103 107 111 115 119 122 125 128 131 134 137 139 142 146 151 156 162 167 170 170 170 170 171 172 174 175 175 177 179 182 188 194 198 196 196 200 205 210 219 231 244 257 272 288 302 311 317 324 331 335 339 343 348 351 352 354 356 358 359 1 2 2 1 1 0 359 357 353 349 347 344 340 338 340 344 346 347 349 351 351 350 349 349 350 352
98 102 107 111 116 120 123 125 127 130 133 136 140 144 150 157 162 164 164 164 164 166 168 171 173 175 177 180 183 188 193 198 199 198 200 205 211 217 227 239 251 262 274 286 296 304 313 322 329 333 338 344 348 350 351 352 355 357 359 1 2 2 2 2 2 2 0 357 354 351 349 345 340 340 344 348 349 351 355 356 355 353 353 354 357
97 100 104 109 114 119 123 126 129 132 136 138 140 143 148 153 157 159 160 161 163 165 167 170 173 176 180 184 189 194 199 201 200 202 208 214 220 226 235 246 256 266 276 284 292 301 311 320 326 331 336 343 347 349 350 351 353 356 358 360 1 2 2 3 4 4 3 1 358 355 353 350 345 342 343 346 349 352 355 358 359 360 0 1 4
98 100 102 107 112 119 125 130 134 137 139 140 140 143 147 151 155 158 160 161 162 165 169 173 176 180 184 189 195 201 204 205 206 210 217 223 228 233 242 251 259 266 274 282 290 300 309 316 321 327 333 340 344 346 348 350 351 353 356 359 0 1 2 4 4 5 5 5 3 360 357 354 350 346 344 345 347 350 353 356 359 3 5 6 6